Temperature
21 19 18 19 19 20 20 20 19 20 21 20 19 19 19 19 20 19 19 19 19 19 19 19 19 19 18 18 18 18 17 17 17 17 17 17 17 17 17 16 16 16 16 16
18 19 20 21 21 21 20 20 20 20 21 21 19 19 19 19 19 20 20 19 19 19 19 19 19 19 19 18 18 18 18 17 17 17 17 17 17 17 16 16 16 16 16 16
19 20 21 22 21 21 20 20 20 20 20 20 19 18 18 19 19 20 20 20 20 19 19 19 19 19 18 18 18 18 17 17 17 17 17 17 17 16 16 16 16 16 16 16
20 21 22 22 21 21 20 21 21 21 19 18 19 17 18 18 18 18 19 19 19 19 19 19 19 18 18 18 18 18 17 17 17 17 17 17 17 16 16 16 16 16 16 16
20 21 21 21 21 21 21 21 21 20 19 18 18 17 17 17 18 18 18 19 19 19 19 19 19 18 18 18 18 18 17 17 17 17 17 17 16 16 16 16 16 16 16 16
20 21 21 21 22 22 21 20 19 17 17 17 18 18 17 17 18 18 18 19 19 19 19 19 19 18 18 18 18 18 17 17 17 17 17 17 16 16 16 16 16 16 16 16
20 21 21 22 21 20 19 17 16 17 16 17 18 18 17 19 19 19 19 19 19 19 19 19 18 18 18 18 18 17 17 17 17 17 17 17 16 16 16 16 16 16 16 16
18 18 20 21 20 19 19 17 16 17 17 17 18 18 18 19 20 20 20 20 19 19 19 19 18 18 18 18 17 17 17 17 17 17 17 16 16 16 16 16 16 16 16 16
18 18 20 21 21 20 19 18 17 16 17 17 17 18 19 19 19 19 19 19 19 19 18 18 18 18 18 17 17 17 17 17 17 17 17 16 16 16 16 16 16 16 16 15
18 18 19 20 21 20 20 18 16 16 17 16 17 18 17 18 18 18 18 18 18 18 18 18 18 18 17 17 17 17 17 17 16 16 16 16 16 16 16 16 16 16 15 15
18 17 18 19 19 19 19 19 17 15 15 16 16 17 18 18 18 17 17 18 18 18 18 18 18 17 17 17 17 17 17 16 16 16 16 16 16 16 16 16 16 15 15 15
17 16 16 17 19 19 19 18 17 16 16 15 15 16 18 18 18 18 18 18 18 18 18 18 17 17 17 17 17 16 16 16 16 16 16 16 16 16 16 15 15 15 15 15
17 16 16 17 17 18 19 19 18 16 15 15 15 17 18 17 18 18 18 17 17 17 17 17 17 17 17 16 16 16 16 16 16 16 16 16 15 15 15 15 15 15 15 15
18 15 16 16 17 17 18 19 18 16 15 15 16 17 17 17 17 17 17 17 17 17 17 17 17 16 16 16 16 16 16 16 16 15 15 15 15 15 15 15 15 15 15 15
16 16 16 17 18 18 18 18 18 17 16 16 16 17 17 17 17 17 17 17 16 16 16 16 16 16 16 16 16 15 15 15 15 15 15 15 15 15 15 15 15 15 15 15
15 16 16 16 17 17 17 18 18 18 17 17 17 17 17 17 17 17 16 16 16 16 16 16 16 16 16 15 15 15 15 15 15 15 15 15 15 15 15 14 14 14 14 14
15 15 15 15 16 17 16 17 17 17 17 17 16 17 16 16 16 16 16 16 16 16 16 16 16 16 15 15 15 15 15 15 15 15 15 14 14 14 14 14 14 14 14 14
14 14 13 13 15 15 16 17 17 17 17 17 17 16 16 16 17 17 17 17 16 16 16 16 16 16 15 15 15 15 15 14 14 14 14 14 14 14 14 14 14 14 14 14
14 14 13 13 14 14 16 17 17 17 16 16 16 16 16 17 16 16 16 17 17 17 16 16 16 16 15 15 14 14 14 14 14 14 14 14 14 14 14 14 14 14 13 14
14 13 13 12 14 14 15 17 17 16 15 16 16 16 16 15 13 14 16 16 16 16 16 16 15 15 15 15 14 14 14 14 13 13 13 13 13 13 13 13 13 13 13 13
14 13 12 12 13 13 15 16 17 15 15 16 16 16 16 15 15 16 16 16 16 16 16 16 15 15 15 14 14 14 14 13 13 13 13 13 13 13 13 13 13 13 13 13
13 12 12 12 12 13 15 16 15 15 16 16 16 16 16 16 16 16 16 16 15 15 15 15 15 14 14 14 14 14 13 13 13 13 13 13 13 13 13 13 12 12 12 12
12 12 12 12 13 14 16 16 17 17 17 16 16 16 16 16 16 15 15 15 15 15 15 15 14 14 14 13 13 13 13 13 13 13 13 12 12 12 12 12 12 12 12 12
12 12 12 12 13 14 16 16 17 17 16 16 16 16 16 16 15 15 15 15 15 15 14 14 14 14 13 13 13 13 13 13 13 13 12 12 12 12 12 12 12 12 12 12
11 11 11 11 12 13 15 15 15 16 16 16 16 15 15 15 15 15 14 15 15 14 14 14 14 13 13 13 13 13 13 13 12 12 12 12 12 12 12 12 11 11 12 12
10 11 11 11 12 12 13 14 15 15 15 15 15 15 15 15 14 14 14 14 14 14 14 13 13 13 13 13 13 13 12 12 12 12 12 12 12 12 11 11 11 11 11 11
Wind_Speed
1 3 2 5 6 5 3 2 2 4 4 4 6 6 7 6 6 7 7 7 7 7 5 4 5 5 5 5 5 4 4 3 4 3 3 3 2 2 2 2 4 5 6 6
4 3 7 5 3 2 1 1 1 3 2 2 4 5 6 6 8 9 9 9 9 7 4 4 4 5 5 5 4 4 4 4 5 4 3 3 3 2 2 1 3 4 6 6
5 6 4 2 1 1 2 3 3 3 2 2 1 4 4 4 3 4 6 7 7 9 8 6 5 5 5 5 5 5 4 4 5 5 3 3 3 3 2 1 1 2 4 5
3 4 1 1 1 2 2 3 2 2 2 3 1 3 6 5 3 4 5 6 7 7 7 6 6 5 5 5 5 5 5 5 4 6 6 6 4 3 3 2 2 2 3 4
3 2 1 2 3 2 4 3 1 1 1 2 1 2 6 1 4 6 7 7 7 7 7 7 6 6 5 5 5 5 5 5 5 6 7 6 4 3 2 2 2 2 2 3
4 3 3 3 2 1 1 4 6 5 4 2 4 4 5 4 7 6 6 7 7 6 6 6 5 4 4 3 4 5 6 5 5 5 5 6 6 5 5 4 3 2 1 1
4 3 2 1 1 4 5 6 4 5 3 5 3 3 6 7 6 8 8 8 7 6 6 6 5 4 4 4 4 5 5 4 4 5 6 6 7 7 7 5 5 4 2 2
1 4 3 2 4 3 1 6 5 3 3 5 3 3 6 4 3 4 5 7 6 6 6 6 6 5 4 5 5 5 6 4 4 5 5 5 6 5 4 5 5 5 4 4
3 4 4 2 2 5 2 2 6 5 1 2 4 3 4 2 1 2 4 5 6 6 6 6 5 5 5 5 5 6 6 4 4 4 4 3 4 5 5 5 5 4 4 4
5 2 4 2 2 0 4 5 5 3 1 2 4 3 3 4 3 2 3 4 4 5 5 4 5 5 4 4 4 4 5 4 4 4 4 4 4 4 5 5 5 5 4 4
4 3 4 2 2 3 0 1 3 3 4 4 2 5 4 6 5 5 4 5 5 5 5 5 4 4 3 3 3 4 3 3 3 3 3 2 3 3 4 4 5 5 5 5
3 4 2 6 6 3 5 5 5 3 3 3 3 6 5 3 4 5 4 3 4 4 4 4 4 3 2 2 2 3 3 3 3 3 3 3 3 3 4 4 4 4 5 5
4 4 1 5 5 3 0 2 4 4 3 3 3 6 4 2 1 1 3 3 2 3 3 3 3 3 3 2 2 3 3 3 3 3 3 3 3 3 3 4 3 3 4 5
4 4 6 7 6 4 4 4 3 4 3 4 6 6 5 3 3 3 3 3 3 4 4 3 3 3 3 2 3 3 2 3 4 4 4 4 4 4 4 3 3 3 4 5
4 3 4 6 6 4 4 7 5 5 7 7 7 6 6 6 5 4 4 3 3 3 3 4 3 3 2 2 2 2 2 2 4 4 4 4 4 3 3 3 2 2 3 4
3 3 1 4 4 3 5 7 6 6 4 5 4 5 6 4 1 2 3 4 4 4 5 5 4 3 3 3 3 2 2 2 3 4 4 3 3 3 3 2 2 2 2 2
2 3 2 4 5 4 4 5 4 3 3 5 6 7 3 1 2 4 5 5 5 5 5 5 5 5 4 4 3 3 3 2 3 3 3 2 3 3 3 3 3 3 2 2
5 4 3 2 2 5 6 3 3 3 3 3 3 4 4 5 4 4 4 5 5 5 5 6 5 5 4 3 2 3 3 3 3 3 2 2 3 3 3 4 3 2 2 2
6 6 4 3 3 6 6 4 2 2 4 4 3 2 2 1 2 3 3 3 5 6 6 6 6 5 4 4 3 4 3 3 3 3 3 3 4 4 3 4 3 3 2 2
3 5 5 4 3 6 7 5 2 2 4 4 2 2 1 2 1 5 5 3 3 3 3 4 5 4 4 4 4 5 3 3 3 3 3 3 4 5 4 4 3 2 2 2
1 2 4 5 5 7 6 5 2 2 6 4 2 2 3 3 5 5 3 2 2 2 3 4 5 5 5 4 5 5 4 4 5 3 3 3 4 5 4 4 3 3 3 2
5 4 5 5 5 7 4 1 4 6 4 2 1 2 3 3 2 1 1 1 1 1 2 3 4 4 4 5 5 5 5 5 3 3 3 3 4 4 3 4 3 3 3 3
4 6 5 7 7 6 3 5 5 4 3 3 2 2 2 1 2 2 1 2 2 3 2 3 4 3 3 5 6 7 6 4 3 3 4 3 3 3 4 4 4 3 3 3
3 0 2 3 4 4 4 2 2 2 3 2 2 2 1 2 2 2 2 2 2 2 2 2 3 3 4 4 6 6 5 5 5 5 4 3 3 3 3 3 3 4 4 4
5 1 1 3 4 4 4 3 2 2 1 1 1 1 2 2 2 3 3 3 3 3 2 3 4 5 5 5 5 5 5 5 5 5 4 3 3 4 3 3 4 5 5 6
4 4 4 6 5 4 6 5 4 2 2 3 2 1 2 3 3 2 3 3 3 3 3 3 3 4 5 5 4 4 5 6 6 5 4 4 3 3 3 3 2 4 5 6
Wind_Direction
22 75 217 228 206 202 211 202 226 239 226 180 204 224 237 224 199 195 196 192 192 201 202 177 169 159 154 151 147 146 139 142 136 134 141 137 140 138 124 140 143 148 137 132
43 251 237 231 224 202 223 238 244 276 265 187 219 245 241 213 202 198 192 192 192 188 186 181 169 162 165 167 165 158 154 155 157 159 164 161 151 146 144 132 120 141 142 143
189 238 240 206 246 259 251 203 209 229 323 2 73 308 274 254 210 197 195 183 180 181 184 186 177 180 176 178 179 173 169 164 166 156 131 110 86 73 70 77 104 129 145 142
223 253 230 209 235 162 270 257 199 145 70 289 164 261 271 242 231 216 208 188 186 183 181 182 179 185 187 192 187 177 171 168 166 154 145 147 152 164 190 179 167 140 134 137
262 244 170 227 235 183 226 262 292 218 138 311 266 195 284 234 225 233 212 194 185 180 175 181 186 186 187 185 183 181 166 164 166 165 164 160 162 177 164 144 143 141 133 143
250 240 191 202 239 229 262 25 20 46 73 305 239 179 273 229 212 209 204 195 187 176 170 176 184 175 180 171 164 159 157 171 177 171 166 169 174 173 158 157 165 172 163 161
320 304 260 152 16 351 59 68 25 2 5 260 253 167 245 242 212 189 185 188 185 170 165 169 173 178 183 173 169 163 157 169 177 174 177 180 181 177 175 174 176 176 178 187
293 288 261 202 177 204 185 133 151 200 242 286 319 223 259 253 210 170 161 162 160 161 167 175 183 183 186 182 174 167 169 174 174 178 189 189 180 179 186 184 179 182 188 191
185 263 282 246 188 152 153 185 177 153 256 288 298 307 325 352 47 122 133 140 162 173 173 170 170 170 170 169 172 171 172 177 182 186 187 192 186 183 189 187 179 181 185 180
163 242 287 278 46 7 166 158 91 107 167 281 301 273 244 242 234 207 176 176 181 177 172 172 170 173 176 174 166 161 164 175 184 185 188 195 193 185 184 177 181 184 186 177
142 166 299 346 192 214 115 106 115 134 164 164 263 278 245 205 201 192 198 195 185 176 174 174 172 173 168 165 163 164 170 173 178 182 185 187 191 179 167 177 189 189 187 177
147 136 246 259 266 211 170 174 149 161 233 180 186 270 286 202 196 180 184 197 187 175 170 163 157 144 140 155 170 169 175 179 184 178 165 172 176 164 166 176 189 186 184 180
127 119 61 334 335 353 224 198 169 149 141 173 190 260 322 20 15 191 187 201 188 160 148 137 136 148 163 173 179 176 184 189 182 162 154 154 160 156 167 177 178 175 174 175
125 131 172 203 231 239 257 261 208 147 176 220 221 246 294 297 278 272 244 207 182 164 159 161 169 177 186 193 191 180 198 187 173 162 155 161 173 172 177 180 172 176 180 176
114 167 216 235 250 243 249 260 247 212 202 203 229 231 253 250 240 233 212 179 160 160 168 176 182 188 187 192 195 185 195 185 168 158 159 178 184 174 167 164 159 159 172 184
103 164 235 280 275 280 281 275 255 238 222 208 223 257 253 239 226 225 206 184 188 197 198 193 191 192 197 199 199 191 191 179 157 158 168 173 166 164 160 152 135 133 142 161
146 147 158 268 297 335 279 256 230 218 230 200 221 244 246 204 216 215 212 202 202 211 207 199 204 205 204 202 189 191 191 167 150 152 151 152 165 167 165 155 134 137 141 128
161 145 155 236 339 252 248 256 176 184 258 234 221 226 204 203 219 226 209 205 214 210 206 205 206 208 205 195 181 165 157 156 159 158 156 158 168 171 163 147 151 160 149 142
170 157 153 159 228 270 288 288 228 202 274 264 224 239 227 224 26 334 289 215 215 214 206 203 199 196 186 186 177 151 146 155 165 179 185 187 185 176 163 162 166 165 153 159
114 129 144 157 197 235 249 274 280 115 267 276 225 214 207 85 30 280 286 259 246 237 206 187 183 175 176 189 168 155 167 170 194 204 203 201 190 177 173 181 178 169 165 180
86 105 169 187 217 252 253 276 37 171 246 270 227 190 165 198 225 245 262 269 252 232 193 170 167 178 191 184 165 167 179 205 218 214 201 193 188 184 179 175 169 162 160 160
188 188 200 180 205 245 257 158 179 221 241 232 216 197 191 224 246 232 243 250 204 168 168 161 169 190 193 181 173 182 204 216 207 197 194 186 188 188 174 164 169 166 159 160
200 198 194 196 217 241 240 206 215 189 198 223 212 234 183 209 237 234 233 228 201 189 191 182 176 189 201 192 187 196 213 204 193 191 191 193 188 179 168 170 173 168 163 169
275 207 173 246 264 277 271 243 233 191 197 224 211 197 188 212 235 249 246 241 224 216 212 197 175 187 209 207 203 204 202 191 183 186 192 191 186 184 179 179 179 181 185 190
249 239 216 256 274 318 310 298 268 249 214 166 209 238 210 190 235 237 236 243 237 229 215 198 199 206 211 209 211 208 191 179 179 186 191 191 192 189 190 198 202 202 206 200
225 198 199 234 238 225 261 281 287 267 245 212 196 252 251 211 216 238 245 242 230 221 223 224 221 213 209 200 207 206 192 178 177 186 191 194 193 192 192 203 243 251 230 223
Height
1525 1530 1533 1530 1528 1528 1529 1533 1535 1531 1524 1526 1529 1529 1526 1524 1525 1526 1527 1529 1529 1531 1531 1532 1533 1534 1535 1535 1536 1536 1537 1538 1539 1540 1541 1542 1543 1544 1545 1546 1547 1547 1548 1549
1531 1532 1525 1522 1523 1525 1528 1533 1534 1529 1522 1525 1528 1528 1523 1522 1522 1523 1524 1526 1527 1529 1530 1531 1532 1533 1533 1534 1534 1535 1536 1537 1538 1539 1540 1541 1542 1544 1545 1546 1546 1547 1548 1548
1531 1527 1520 1522 1524 1526 1528 1531 1531 1530 1526 1524 1529 1533 1526 1521 1521 1522 1522 1523 1525 1526 1527 1528 1530 1531 1532 1532 1533 1534 1535 1536 1537 1538 1539 1541 1542 1543 1544 1545 1546 1546 1547 1548
1526 1521 1521 1523 1524 1525 1531 1523 1523 1526 1534 1539 1534 1547 1531 1523 1522 1521 1521 1522 1523 1524 1525 1526 1528 1529 1530 1531 1532 1533 1534 1535 1536 1537 1538 1539 1540 1541 1543 1544 1545 1546 1547 1548
1526 1521 1522 1524 1523 1522 1524 1519 1522 1525 1532 1539 1536 1543 1536 1525 1525 1521 1518 1519 1520 1522 1523 1525 1526 1527 1528 1530 1531 1532 1533 1534 1535 1537 1538 1538 1539 1541 1542 1544 1544 1545 1546 1547
1522 1519 1519 1520 1518 1519 1519 1522 1526 1532 1538 1548 1537 1542 1539 1528 1521 1517 1516 1517 1518 1520 1522 1523 1524 1526 1527 1528 1529 1531 1532 1533 1535 1536 1537 1537 1539 1540 1541 1542 1543 1544 1545 1546
1527 1521 1518 1518 1521 1521 1523 1538 1551 1552 1556 1551 1533 1536 1534 1517 1513 1512 1513 1514 1516 1518 1520 1521 1522 1524 1525 1526 1528 1529 1531 1532 1534 1535 1535 1536 1538 1539 1540 1541 1542 1543 1544 1544
1538 1536 1521 1518 1521 1526 1526 1535 1553 1560 1559 1549 1534 1536 1526 1512 1511 1511 1512 1513 1515 1516 1518 1519 1520 1522 1523 1525 1526 1528 1530 1531 1532 1533 1534 1535 1536 1537 1538 1539 1540 1541 1542 1543
1537 1535 1520 1517 1516 1520 1527 1533 1533 1545 1546 1550 1542 1531 1520 1513 1513 1513 1513 1514 1514 1515 1517 1518 1519 1520 1521 1523 1525 1526 1528 1529 1531 1532 1533 1534 1534 1535 1536 1537 1539 1540 1541 1542
1526 1533 1523 1517 1516 1517 1520 1525 1537 1545 1553 1557 1545 1537 1534 1520 1517 1515 1514 1514 1514 1515 1516 1517 1518 1519 1520 1522 1524 1525 1527 1528 1529 1530 1531 1532 1533 1534 1535 1536 1537 1538 1539 1540
1523 1533 1529 1523 1523 1525 1524 1526 1533 1543 1547 1555 1555 1544 1519 1516 1514 1514 1513 1512 1513 1513 1514 1515 1517 1518 1520 1521 1522 1524 1525 1526 1527 1528 1529 1530 1531 1532 1533 1534 1535 1536 1537 1538
1522 1532 1536 1528 1519 1516 1519 1523 1531 1543 1544 1545 1550 1542 1513 1512 1511 1511 1512 1512 1512 1512 1513 1514 1515 1517 1518 1519 1521 1522 1523 1524 1525 1526 1527 1528 1529 1530 1531 1532 1533 1534 1535 1536
1520 1531 1541 1538 1531 1522 1521 1520 1523 1531 1539 1545 1548 1537 1513 1512 1512 1511 1512 1512 1512 1512 1513 1514 1515 1515 1516 1518 1519 1520 1521 1522 1523 1524 1525 1526 1527 1528 1529 1530 1531 1532 1533 1534
1516 1528 1536 1540 1534 1525 1523 1520 1520 1528 1539 1540 1536 1529 1518 1514 1513 1512 1512 1511 1511 1512 1512 1513 1513 1514 1515 1516 1517 1518 1519 1520 1521 1522 1523 1524 1525 1526 1527 1528 1529 1530 1531 1532
1516 1526 1525 1523 1520 1518 1519 1518 1517 1521 1525 1530 1526 1522 1517 1513 1512 1510 1510 1510 1511 1511 1511 1512 1512 1513 1514 1514 1515 1516 1517 1518 1519 1520 1521 1522 1523 1524 1525 1526 1527 1528 1529 1529
1517 1523 1523 1523 1518 1517 1518 1515 1514 1515 1516 1518 1517 1517 1510 1508 1509 1509 1509 1509 1509 1509 1510 1510 1511 1511 1511 1512 1513 1514 1515 1516 1517 1518 1519 1520 1520 1521 1523 1524 1525 1526 1527 1527
1519 1523 1528 1531 1522 1519 1523 1514 1513 1514 1512 1512 1516 1512 1507 1508 1507 1507 1506 1506 1507 1507 1508 1508 1508 1509 1509 1510 1511 1512 1513 1514 1515 1515 1517 1518 1518 1519 1520 1522 1523 1524 1524 1525
1518 1523 1530 1532 1528 1533 1519 1507 1507 1509 1509 1507 1506 1505 1505 1504 1504 1504 1503 1503 1503 1504 1505 1505 1506 1506 1507 1508 1509 1510 1511 1512 1513 1513 1514 1515 1516 1517 1518 1519 1520 1521 1522 1523
1511 1518 1528 1534 1534 1528 1515 1507 1506 1509 1510 1505 1504 1503 1502 1502 1502 1501 1501 1501 1501 1501 1501 1502 1503 1504 1505 1506 1507 1508 1509 1510 1511 1512 1513 1513 1514 1515 1516 1517 1518 1519 1520 1521
1510 1514 1525 1531 1532 1531 1515 1504 1502 1506 1511 1503 1501 1501 1501 1501 1505 1502 1499 1498 1498 1498 1498 1498 1500 1501 1503 1504 1505 1506 1507 1507 1508 1509 1510 1511 1512 1513 1514 1515 1516 1517 1518 1518
1516 1519 1524 1528 1529 1521 1507 1502 1503 1515 1511 1501 1499 1499 1499 1499 1500 1498 1496 1496 1495 1495 1496 1496 1497 1498 1500 1501 1502 1503 1504 1505 1506 1507 1508 1509 1510 1511 1512 1513 1514 1514 1515 1516
1516 1519 1522 1524 1527 1521 1502 1501 1505 1504 1500 1499 1498 1497 1497 1497 1496 1495 1494 1493 1493 1493 1493 1494 1494 1495 1497 1498 1499 1500 1501 1502 1503 1504 1505 1506 1507 1508 1509 1510 1511 1512 1513 1513
1511 1511 1512 1513 1512 1502 1499 1498 1498 1498 1498 1497 1496 1495 1495 1494 1493 1493 1492 1492 1492 1491 1491 1492 1492 1493 1494 1495 1496 1497 1498 1499 1500 1501 1502 1503 1505 1506 1507 1507 1508 1509 1510 1510
1506 1504 1506 1507 1502 1499 1497 1496 1496 1496 1496 1495 1494 1494 1493 1492 1491 1491 1490 1490 1489 1489 1489 1490 1490 1490 1491 1492 1493 1494 1495 1496 1497 1498 1499 1501 1502 1502 1503 1504 1505 1506 1506 1507
1505 1504 1505 1504 1500 1498 1496 1496 1495 1494 1493 1493 1492 1492 1491 1490 1489 1489 1488 1488 1487 1487 1487 1487 1487 1487 1488 1489 1490 1491 1492 1493 1494 1495 1496 1497 1498 1499 1500 1501 1502 1502 1503 1504
1502 1502 1503 1502 1498 1498 1496 1494 1494 1492 1491 1490 1489 1489 1489 1488 1487 1486 1486 1486 1485 1485 1485 1485 1485 1485 1485 1486 1487 1488 1489 1490 1490 1491 1492 1494 1495 1496 1497 1497 1498 1499 1500 1500